Weather History for KCLM - November, 2011

Change the Weather History Date:

Sunday, November 6, 2011

  Actual Average Record
Temperature  
Mean Temperature 40 °F -  
Max Temperature 46 °F 51 °F 64 °F (2014)
Min Temperature 35 °F 39 °F 26 °F (2003)
Degree Days  
Heating Degree Days 24    
Moisture  
Dew Point 34 °F    
Average Humidity 79    
Maximum Humidity 89    
Minimum Humidity 60    
Precipitation  
Precipitation 0.00 in - - ()
Sea Level Pressure  
Sea Level Pressure 30.01 in    
Wind  
Wind Speed 3 mph (SW)    
Max Wind Speed 8 mph    
Max Gust Speed -    
Visibility 10 miles    
Events      
Averages and records for this station are not official NWS values.
T = Trace of Precipitation, MM = Missing Value Source: NWS Daily Summary

Daily Weather History Graph

Daily Weather History Graph

Search for Another Location

Airport or City:

Trip Planner

Search our weather history database for the weather conditions in past years. The results will help you decide how hot, cold, wet, or windy it might be!

Date:

Astronomy

Nov. 06, 2011 Rise Set
Actual Time 7:06 AM PST 4:47 PM PST
Civil Twilight 6:33 AM PST 5:20 PM PST
Nautical Twilight 5:56 AM PST 5:57 PM PST
Astronomical Twilight 5:20 AM PST 6:34 PM PST
Moon 2:46 PM PST (11/6) 3:03 AM PST (11/6)
Length of Visible Light 10h 47m
Length of Day
9h 41m
Waxing Gibbous, 86% of the Moon is Illuminated
Nov 6
Waxing Gibbous
Nov 10
Full
Nov 18
Last Quarter
Nov 24
New
Dec 2
First Quarter

Hourly Weather History & Observations

Time (PST) Temp. Windchill Dew Point Humidity Pressure Visibility Wind Dir Wind Speed Gust Speed Precip Events Conditions
12:53 AM 35.1 °F - 32.0 °F 89% 29.88 in 10.0 mi Calm Calm - N/A   Overcast
1:28 AM 35.6 °F - 32.0 °F 87% 29.88 in 10.0 mi Calm Calm - N/A   Overcast
1:53 AM 37.0 °F 31.6 °F 33.1 °F 86% 29.89 in 10.0 mi SW 6.9 mph - N/A   Overcast
1:53 AM 37.0 °F - 34.0 °F 89% 29.90 in 10.0 mi Calm Calm - N/A   Overcast
2:53 AM 37.0 °F 32.4 °F 33.1 °F 86% 29.91 in 10.0 mi SW 5.8 mph - N/A   Overcast
3:17 AM 37.4 °F 32.1 °F 33.8 °F 87% 29.90 in 10.0 mi WSW 6.9 mph - N/A   Overcast
3:53 AM 37.9 °F - 33.1 °F 83% 29.91 in 10.0 mi Calm Calm - N/A   Overcast
4:29 AM 37.4 °F 32.8 °F 33.8 °F 87% 29.91 in 10.0 mi SW 5.8 mph - N/A   Overcast
4:53 AM 37.9 °F 32.7 °F 32.0 °F 79% 29.93 in 10.0 mi SW 6.9 mph - N/A   Overcast
5:05 AM 37.4 °F 33.8 °F 32.0 °F 81% 29.93 in 10.0 mi WSW 4.6 mph - N/A   Overcast
5:53 AM 37.0 °F 31.6 °F 32.0 °F 82% 29.95 in 10.0 mi WSW 6.9 mph - N/A   Overcast
6:53 AM 37.9 °F 32.7 °F 32.0 °F 79% 29.97 in 10.0 mi WSW 6.9 mph - N/A   Overcast
7:53 AM 37.9 °F 33.5 °F 33.1 °F 83% 29.99 in 10.0 mi SW 5.8 mph - N/A   Overcast
8:53 AM 39.9 °F 36.7 °F 33.1 °F 77% 30.00 in 10.0 mi SW 4.6 mph - N/A   Overcast
9:53 AM 45.0 °F - 36.0 °F 71% 30.01 in 10.0 mi Calm Calm - N/A   Overcast
10:53 AM 45.0 °F 42.6 °F 36.0 °F 71% 30.02 in 10.0 mi East 4.6 mph - N/A   Overcast
11:12 AM 44.6 °F 40.2 °F 33.8 °F 66% 30.02 in 10.0 mi East 8.1 mph - N/A   Overcast
11:53 AM 45.0 °F - 35.1 °F 68% 30.04 in 10.0 mi Calm Calm - N/A   Overcast
12:53 PM 46.0 °F - 34.0 °F 63% 30.05 in 10.0 mi Calm Calm - N/A   Overcast
1:53 PM 45.0 °F 42.6 °F 32.0 °F 60% 30.06 in 10.0 mi ENE 4.6 mph - N/A   Overcast
2:53 PM 46.0 °F - 35.1 °F 66% 30.08 in 10.0 mi Calm Calm - N/A   Overcast
3:53 PM 45.0 °F 41.8 °F 34.0 °F 65% 30.09 in 10.0 mi ESE 5.8 mph - N/A   Overcast
4:53 PM 42.1 °F - 34.0 °F 73% 30.10 in 10.0 mi Calm Calm - N/A   Mostly Cloudy
5:53 PM 36.0 °F - 33.1 °F 89% 30.12 in 10.0 mi Calm Calm - N/A   Scattered Clouds
6:53 PM 37.0 °F - 33.1 °F 86% 30.13 in 10.0 mi Calm Calm - N/A   Overcast
7:53 PM 37.9 °F - 34.0 °F 86% 30.14 in 10.0 mi Calm Calm - N/A   Overcast
8:53 PM 39.0 °F 34.8 °F 35.1 °F 86% 30.16 in 10.0 mi SW 5.8 mph - N/A   Overcast
9:53 PM 39.2 °F 35.0 °F 35.6 °F 87% 30.16 in 10.0 mi SW 5.8 mph - N/A   Overcast
10:53 PM 37.9 °F 32.1 °F 34.0 °F 86% 30.17 in 10.0 mi WSW 8.1 mph - N/A   Overcast